Location: Ellerstadt
(49.4644°N, 8.2615°E)
Time: 04:20:03
(UTC+00:00)

Cosmos 2369 Rocket - Pass Details

Date: 03 March 2021
Orbit: 829 x 852 km, 71.0° (Epoch: 11 April)

Event Time Altitude Azimuth Distance (km) Brightness Sun altitude
Rises 21:28:32 0° 333° (NNW) 3,384 6.2 -39.0°
Reaches altitude 10° 21:31:03 10° 339° (NNW) 2,448 5.2 -39.3°
Enters shadow 21:32:56 21° 347° (NNW) 1,798 4.3 -39.5°
